Regional Weather Roundup
Issued by NWS

Home | Current Version | Previous Version | Graphics & Text | Print | Product List | Glossary Off
Versions: 1 2 3 4 5 6 7 8 9 10 11 12 13 14 15 16 17 18 19 20 21 22 23 24 25 26 27 28 29 30 31 32 33 34 35 36 37 38 39 40 41 42 43 44 45 46 47 48 49 50

621
ASUS43 KTOP 230808
RWRKS

WEATHER ROUNDUP FOR KANSAS
NATIONAL WEATHER SERVICE GOODLAND KS
300 AM CDT WED AUG 23 2017

NOTE:  "FAIR" INDICATES FEW OR NO CLOUDS BELOW 12,000 FEET WITH NO
SIGNIFICANT WEATHER AND/OR OBSTRUCTIONS TO VISIBILITY.

KSZ001>006-013>018-027>032-041>047-230900-
NORTHWEST KANSAS

CITY           SKY/WX    TMP DP  RH WIND       PRES   REMARKS
GOODLAND       CLEAR     57  48  72 S12       30.21F
HAYS           CLEAR     58  51  78 E9        30.20F
HILL CITY      CLEAR     56  51  84 E6        30.21S
RUSSELL        CLEAR     59  49  69 E7        30.19S
$$

KSZ061>065-074>080-084>089-230900-
SOUTHWEST KANSAS

CITY           SKY/WX    TMP DP  RH WIND       PRES   REMARKS
DODGE CITY       N/A    N/A N/A N/A MISG      30.21R
ELKHART          N/A     59  58  97 SE3         N/A
GARDEN CITY    CLEAR     60  51  72 E9        30.21S
GREAT BEND     CLEAR     61  50  67 E7        30.21R
LIBERAL        PTCLDY    66  57  72 E10       30.21
PRATT          CLEAR     61  49  65 CALM      30.20S
$$

KSZ066>073-081>083-090>101-230900-
SOUTHEAST KANSAS

CITY           SKY/WX    TMP DP  RH WIND       PRES   REMARKS
CHANUTE        PTCLDY    63  57  81 N7        30.14F
COFFEYVILLE    CLOUDY    65  59  81 NE7       30.11S
HUTCHINSON     CLEAR     57  51  80 CALM      30.18R
MEDICINE LODGE   N/A     61  52  72 CALM      30.17R
NEWTON         CLEAR     60  53  77 E5        30.19R
PARSONS        CLOUDY    64  57  78 N6        30.13F
WICHITA INTL   PTCLDY    65  56  72 E7        30.16S
WICHITA JABRA  CLEAR     59  58  96 NE7       30.16F
WICHITA MCCONL CLEAR     64  54  69 E6        30.16S
WINFIELD       CLEAR     65  56  72 NE7       30.14F
$$

KSZ007>012-019>026-033>040-048>060-102>105-230900-
NORTHEAST KANSAS

CITY           SKY/WX    TMP DP  RH WIND       PRES   REMARKS
CONCORDIA      CLEAR     57  53  86 CALM      30.20R
EMPORIA        CLEAR     58  54  86 NE6       30.16F
LAWRENCE       CLEAR     57  56  96 CALM      30.16S
MANHATTAN      CLEAR     55  53  93 CALM      30.18R
MARYSVILLE     CLEAR     54  50  87 CALM      30.19S
OLATHE IND     CLEAR     57  54  89 N5        30.17R
OLATHE EXE     CLEAR     60  54  80 NE6       30.16S
SALINA         CLEAR     62  51  67 W3        30.19R
TOPEKA BILLARD CLEAR     57  57 100 CALM      30.17R
TOPEKA FORBES  CLEAR     57  55  93 N3        30.17R
$$




USA.gov is the U.S. government's official web portal to all federal, state and local government web resources and services.